Time,TemperatureF,DewpointF,PressureIn,WindDirection,WindDirectionDegrees,WindSpeedMPH,WindSpeedGustMPH,Humidity,HourlyPrecipIn,Conditions,Clouds,dailyrainin,SoftwareType,DateUTC
2013-10-04 00:05:00,52.0,51.0,-100.00,NE,50,2.0,7.0,98,-99.99,,,-99.99,,2013-10-04 05:05:00,
2013-10-04 00:50:00,52.0,51.0,-100.00,NE,50,2.0,7.0,98,-99.99,,,-99.99,,2013-10-04 05:50:00,
2013-10-04 00:59:00,52.0,51.0,-100.00,NE,50,2.0,7.0,98,-99.99,,,-99.99,,2013-10-04 05:59:00,
2013-10-04 01:04:00,51.0,51.0,-100.00,East,85,2.0,7.0,99,-99.99,,,-99.99,,2013-10-04 06:04:00,
2013-10-04 01:28:00,51.0,51.0,-100.00,East,85,2.0,7.0,99,-99.99,,,-99.99,,2013-10-04 06:28:00,
2013-10-04 01:38:00,51.0,51.0,-100.00,East,85,2.0,7.0,99,-99.99,,,-99.99,,2013-10-04 06:38:00,
2013-10-04 01:48:00,51.0,51.0,-100.00,East,85,2.0,7.0,99,-99.99,,,-99.99,,2013-10-04 06:48:00,
2013-10-04 01:58:00,51.0,51.0,-100.00,East,85,2.0,7.0,99,-99.99,,,-99.99,,2013-10-04 06:58:00,
2013-10-04 02:03:00,51.0,51.0,-100.00,ENE,60,4.0,7.0,99,-99.99,,,-99.99,,2013-10-04 07:03:00,
2013-10-04 02:29:00,51.0,51.0,-100.00,ENE,60,4.0,7.0,99,-99.99,,,-99.99,,2013-10-04 07:29:00,
2013-10-04 02:38:00,51.0,51.0,-100.00,ENE,60,4.0,7.0,99,-99.99,,,-99.99,,2013-10-04 07:38:00,
2013-10-04 02:48:00,51.0,51.0,-100.00,ENE,60,4.0,7.0,99,-99.99,,,-99.99,,2013-10-04 07:48:00,
2013-10-04 02:58:00,51.0,51.0,-100.00,ENE,60,4.0,7.0,99,-99.99,,,-99.99,,2013-10-04 07:58:00,
2013-10-04 03:03:00,51.0,51.0,-100.00,NNE,20,2.0,7.0,99,-99.99,,,-99.99,,2013-10-04 08:03:00,
2013-10-04 03:28:00,51.0,51.0,-100.00,NNE,20,2.0,7.0,99,-99.99,,,-99.99,,2013-10-04 08:28:00,
2013-10-04 03:38:00,51.0,51.0,-100.00,NNE,20,2.0,7.0,99,-99.99,,,-99.99,,2013-10-04 08:38:00,
2013-10-04 03:48:00,51.0,51.0,-100.00,NNE,20,2.0,7.0,99,-99.99,,,-99.99,,2013-10-04 08:48:00,
2013-10-04 03:58:00,51.0,51.0,-100.00,NNE,20,2.0,7.0,99,-99.99,,,-99.99,,2013-10-04 08:58:00,
2013-10-04 04:05:00,51.0,51.0,-100.00,East,90,4.0,14.0,99,-99.99,,,-99.99,,2013-10-04 09:05:00,
2013-10-04 04:51:00,51.0,51.0,-100.00,East,90,4.0,14.0,99,-99.99,,,-99.99,,2013-10-04 09:51:00,
2013-10-04 05:00:00,51.0,51.0,-100.00,East,90,4.0,14.0,99,-99.99,,,-99.99,,2013-10-04 10:00:00,
2013-10-04 05:05:00,51.0,51.0,-100.00,East,100,4.0,11.0,99,-99.99,,,-99.99,,2013-10-04 10:05:00,
2013-10-04 05:51:00,51.0,51.0,-100.00,East,100,4.0,11.0,99,-99.99,,,-99.99,,2013-10-04 10:51:00,
2013-10-04 06:00:00,51.0,51.0,-100.00,East,100,4.0,11.0,99,-99.99,,,-99.99,,2013-10-04 11:00:00,
2013-10-04 06:05:00,51.0,51.0,-100.00,East,85,5.0,11.0,99,-99.99,,,-99.99,,2013-10-04 11:05:00,
2013-10-04 06:28:00,51.0,51.0,-100.00,East,85,3.0,11.0,99,-99.99,,,-99.99,,2013-10-04 11:28:00,
2013-10-04 06:51:00,51.0,51.0,-100.00,East,85,5.0,11.0,99,-99.99,,,-99.99,,2013-10-04 11:51:00,
2013-10-04 07:00:00,51.0,51.0,-100.00,East,85,5.0,11.0,99,-99.99,,,-99.99,,2013-10-04 12:00:00,
2013-10-04 07:04:00,51.0,51.0,-100.00,ENE,75,2.0,7.0,99,-99.99,,,-99.99,,2013-10-04 12:04:00,
2013-10-04 07:31:00,51.0,51.0,-100.00,ENE,75,2.0,7.0,99,-99.99,,,-99.99,,2013-10-04 12:31:00,
2013-10-04 07:40:00,51.0,51.0,-100.00,ENE,75,2.0,7.0,99,-99.99,,,-99.99,,2013-10-04 12:40:00,
2013-10-04 07:50:00,51.0,51.0,-100.00,ENE,75,2.0,7.0,99,-99.99,,,-99.99,,2013-10-04 12:50:00,
2013-10-04 08:00:00,51.0,51.0,-100.00,ENE,75,2.0,7.0,99,-99.99,,,-99.99,,2013-10-04 13:00:00,
2013-10-04 08:05:00,52.0,51.0,-100.00,East,90,2.0,6.0,99,-99.99,,,-99.99,,2013-10-04 13:05:00,
2013-10-04 08:50:00,52.0,51.0,-100.00,East,90,2.0,6.0,99,-99.99,,,-99.99,,2013-10-04 13:50:00,
2013-10-04 08:59:00,52.0,51.0,-100.00,East,90,2.0,6.0,99,-99.99,,,-99.99,,2013-10-04 13:59:00,
2013-10-04 09:03:00,52.0,52.0,-100.00,East,95,2.0,9.0,99,-99.99,,,-99.99,,2013-10-04 14:03:00,
2013-10-04 09:31:00,52.0,52.0,-100.00,East,95,2.0,9.0,99,-99.99,,,-99.99,,2013-10-04 14:31:00,
2013-10-04 09:40:00,52.0,52.0,-100.00,East,95,2.0,9.0,99,-99.99,,,-99.99,,2013-10-04 14:40:00,
2013-10-04 09:50:00,52.0,52.0,-100.00,East,95,2.0,9.0,99,-99.99,,,-99.99,,2013-10-04 14:50:00,
2013-10-04 10:00:00,52.0,52.0,-100.00,East,95,2.0,9.0,99,-99.99,,,-99.99,,2013-10-04 15:00:00,
2013-10-04 10:05:00,53.0,52.0,-100.00,ENE,75,4.0,13.0,95,-99.99,,,-99.99,,2013-10-04 15:05:00,
2013-10-04 10:51:00,53.0,52.0,-100.00,ENE,75,4.0,13.0,95,-99.99,,,-99.99,,2013-10-04 15:51:00,
2013-10-04 11:00:00,53.0,52.0,-100.00,ENE,75,4.0,13.0,95,-99.99,,,-99.99,,2013-10-04 16:00:00,
2013-10-04 11:03:00,54.0,51.0,-100.00,East,90,6.0,11.0,87,-99.99,,,-99.99,,2013-10-04 16:03:00,
2013-10-04 11:31:00,54.0,51.0,-100.00,East,90,6.0,11.0,87,-99.99,,,-99.99,,2013-10-04 16:31:00,
2013-10-04 11:41:00,54.0,51.0,-100.00,East,90,6.0,11.0,87,-99.99,,,-99.99,,2013-10-04 16:41:00,
2013-10-04 11:51:00,54.0,51.0,-100.00,East,90,6.0,11.0,87,-99.99,,,-99.99,,2013-10-04 16:51:00,
2013-10-04 12:00:00,54.0,51.0,-100.00,East,90,6.0,11.0,87,-99.99,,,-99.99,,2013-10-04 17:00:00,
2013-10-04 12:04:00,55.0,51.0,-100.00,East,100,5.0,12.0,86,-99.99,,,-99.99,,2013-10-04 17:04:00,
2013-10-04 12:32:00,55.0,51.0,-100.00,East,100,5.0,12.0,86,-99.99,,,-99.99,,2013-10-04 17:32:00,
2013-10-04 13:02:00,55.0,51.0,-100.00,East,100,5.0,12.0,86,-99.99,,,-99.99,,2013-10-04 18:02:00,
2013-10-04 13:33:00,56.0,52.0,-100.00,East,100,6.0,14.0,86,-99.99,,,-99.99,,2013-10-04 18:33:00,
2013-10-04 13:42:00,56.0,52.0,-100.00,East,100,6.0,14.0,86,-99.99,,,-99.99,,2013-10-04 18:42:00,
2013-10-04 13:53:00,56.0,52.0,-100.00,East,100,6.0,14.0,86,-99.99,,,-99.99,,2013-10-04 18:53:00,
2013-10-04 14:02:00,56.0,52.0,-100.00,East,100,6.0,14.0,86,-99.99,,,-99.99,,2013-10-04 19:02:00,
2013-10-04 14:22:00,57.0,52.0,-100.00,East,80,4.0,10.0,85,-99.99,,,-99.99,,2013-10-04 19:22:00,
2013-10-04 14:32:00,57.0,52.0,-100.00,East,80,4.0,10.0,85,-99.99,,,-99.99,,2013-10-04 19:32:00,
2013-10-04 14:43:00,57.0,52.0,-100.00,East,80,4.0,10.0,85,-99.99,,,-99.99,,2013-10-04 19:43:00,
2013-10-04 14:52:00,57.0,52.0,-100.00,East,80,4.0,10.0,85,-99.99,,,-99.99,,2013-10-04 19:52:00,
2013-10-04 15:02:00,57.0,52.0,-100.00,East,80,4.0,10.0,85,-99.99,,,-99.99,,2013-10-04 20:02:00,
2013-10-04 15:22:00,58.0,52.0,-100.00,ESE,105,4.0,11.0,81,-99.99,,,-99.99,,2013-10-04 20:22:00,
2013-10-04 15:43:00,58.0,52.0,-100.00,East,100,4.0,11.0,81,-99.99,,,-99.99,,2013-10-04 20:43:00,
2013-10-04 15:53:00,58.0,52.0,-100.00,East,100,4.0,11.0,81,-99.99,,,-99.99,,2013-10-04 20:53:00,
2013-10-04 16:01:00,58.0,52.0,-100.00,East,100,4.0,11.0,81,-99.99,,,-99.99,,2013-10-04 21:01:00,
2013-10-04 16:03:00,58.0,52.0,-100.00,East,95,4.0,7.0,80,-99.99,,,-99.99,,2013-10-04 21:03:00,
2013-10-04 16:22:00,58.0,52.0,-100.00,East,95,4.0,7.0,80,-99.99,,,-99.99,,2013-10-04 21:22:00,
2013-10-04 16:33:00,58.0,52.0,-100.00,East,95,4.0,7.0,80,-99.99,,,-99.99,,2013-10-04 21:33:00,
2013-10-04 16:43:00,58.0,52.0,-100.00,East,95,4.0,7.0,80,-99.99,,,-99.99,,2013-10-04 21:43:00,
2013-10-04 16:54:00,58.0,52.0,-100.00,East,95,4.0,7.0,80,-99.99,,,-99.99,,2013-10-04 21:54:00,
2013-10-04 17:03:00,55.0,53.0,-100.00,ESE,115,1.0,7.0,93,-99.99,,,-99.99,,2013-10-04 22:03:00,
2013-10-04 17:23:00,55.0,53.0,-100.00,ESE,115,1.0,7.0,93,-99.99,,,-99.99,,2013-10-04 22:23:00,
2013-10-04 17:33:00,55.0,53.0,-100.00,ESE,115,1.0,7.0,93,-99.99,,,-99.99,,2013-10-04 22:33:00,
2013-10-04 17:43:00,55.0,53.0,-100.00,ESE,115,1.0,7.0,93,-99.99,,,-99.99,,2013-10-04 22:43:00,
2013-10-04 17:52:00,55.0,53.0,-100.00,ESE,115,1.0,7.0,93,-99.99,,,-99.99,,2013-10-04 22:52:00,
2013-10-04 18:42:00,54.0,53.0,-100.00,ESE,120,4.0,10.0,98,-99.99,,,-99.99,,2013-10-04 23:42:00,
2013-10-04 18:53:00,54.0,53.0,-100.00,ESE,120,4.0,10.0,98,-99.99,,,-99.99,,2013-10-04 23:53:00,
2013-10-04 19:02:00,54.0,53.0,-100.00,ESE,120,4.0,10.0,98,-99.99,,,-99.99,,2013-10-05 00:02:00,
2013-10-04 19:42:00,53.0,53.0,-100.00,ESE,105,6.0,14.0,98,-99.99,,,-99.99,,2013-10-05 00:42:00,
2013-10-04 19:53:00,53.0,53.0,-100.00,ESE,105,6.0,14.0,98,-99.99,,,-99.99,,2013-10-05 00:53:00,
2013-10-04 20:02:00,53.0,53.0,-100.00,ESE,105,6.0,14.0,98,-99.99,,,-99.99,,2013-10-05 01:02:00,
2013-10-04 20:43:00,53.0,52.0,-100.00,East,100,7.0,13.0,99,-99.99,,,-99.99,,2013-10-05 01:43:00,
2013-10-04 20:52:00,53.0,52.0,-100.00,East,100,7.0,13.0,99,-99.99,,,-99.99,,2013-10-05 01:52:00,
2013-10-04 21:02:00,53.0,52.0,-100.00,East,100,7.0,13.0,99,-99.99,,,-99.99,,2013-10-05 02:02:00,
2013-10-04 21:22:00,53.0,52.0,-100.00,SE,130,4.0,10.0,99,-99.99,,,-99.99,,2013-10-05 02:22:00,
2013-10-04 21:42:00,52.0,52.0,-100.00,ESE,115,6.0,12.0,99,-99.99,,,-99.99,,2013-10-05 02:42:00,
2013-10-04 21:52:00,52.0,52.0,-100.00,ESE,115,6.0,12.0,99,-99.99,,,-99.99,,2013-10-05 02:52:00,
2013-10-04 22:02:00,52.0,52.0,-100.00,ESE,115,6.0,12.0,99,-99.99,,,-99.99,,2013-10-05 03:02:00,
2013-10-04 23:04:00,51.0,51.0,-100.00,East,95,4.0,12.0,99,-99.99,,,-99.99,,2013-10-05 04:04:00,
2013-10-04 23:24:00,51.0,51.0,-100.00,East,95,4.0,12.0,99,-99.99,,,-99.99,,2013-10-05 04:24:00,
2013-10-04 23:33:00,51.0,51.0,-100.00,East,95,4.0,12.0,99,-99.99,,,-99.99,,2013-10-05 04:33:00,
2013-10-04 23:44:00,51.0,51.0,-100.00,East,95,4.0,12.0,99,-99.99,,,-99.99,,2013-10-05 04:44:00,
2013-10-04 23:53:00,51.0,51.0,-100.00,East,95,4.0,12.0,99,-99.99,,,-99.99,,2013-10-05 04:53:00,